GW1010 Weather Reports


time (UTC)temp
C
wind
direction
speed
KPH
gust
KPH
rain 1hr
cm
rain 24hr
cm
rain mn
cm
humidity
%
barometer
mb
20260509183533 24 0 0.0 3.2 0.00 0.00 0.00 48 1015.3
20260509183044 23 228 0.0 4.8 0.00 0.00 0.00 53 1015.3
20260509182527 23 0 0.0 4.8 0.00 0.00 0.00 51 1015.4
20260509182027 22 318 1.6 4.8 0.00 0.00 0.00 54 1015.4
20260509181545 22 0 0.0 4.8 0.00 0.00 0.00 57 1015.5
20260509181028 21 246 1.6 4.8 0.00 0.00 0.00 57 1015.5
20260509180528 21 300 1.6 4.8 0.00 0.00 0.00 57 1015.6
20260509180042 21 0 0.0 6.4 0.00 0.00 0.00 59 1015.6
20260509175527 20 307 0.0 6.4 0.00 0.00 0.00 61 1015.7
20260509175027 20 315 1.6 4.8 0.00 0.00 0.00 60 1015.8
20260509174547 20 295 1.6 3.2 0.00 0.00 0.00 62 1015.9
20260509174030 19 347 1.6 6.4 0.00 0.00 0.00 65 1015.9
20260509173527 19 231 1.6 6.4 0.00 0.00 0.00 67 1015.9
20260509173041 18 0 1.6 6.4 0.00 0.00 0.00 66 1016.0
20260509172530 18 250 1.6 3.2 0.00 0.00 0.00 67 1016.0
20260509172030 18 232 0.0 3.2 0.00 0.00 0.00 67 1016.1
20260509171536 18 187 0.0 3.2 0.00 0.00 0.00 69 1016.0
20260509171027 17 188 0.0 3.2 0.00 0.00 0.00 71 1016.1
20260509170528 17 187 0.0 3.2 0.00 0.00 0.00 73 1016.1
20260509170045 17 186 0.0 3.2 0.00 0.00 0.00 74 1016.2
20260509165527 16 188 0.0 4.8 0.00 0.00 0.00 76 1016.2
20260509165028 16 0 1.6 4.8 0.00 0.00 0.00 76 1016.2
20260509164544 16 188 0.0 3.2 0.00 0.00 0.00 78 1016.3
20260509164027 15 0 0.0 3.2 0.00 0.00 0.00 80 1016.4
20260509163527 14 0 0.0 6.4 0.00 0.00 0.00 82 1016.4
20260509163054 14 0 0.0 6.4 0.00 0.00 0.00 82 1016.5
20260509162527 13 188 1.6 6.4 0.00 0.00 0.00 83 1016.5
20260509162028 13 0 0.0 3.2 0.00 0.00 0.00 82 1016.5
20260509161542 14 191 0.0 4.8 0.00 0.00 0.00 84 1016.6
20260509161031 13 0 0.0 6.4 0.00 0.00 0.00 86 1016.6
20260509160527 13 0 1.6 6.4 0.00 0.00 0.00 88 1016.7
20260509160038 12 0 0.0 1.6 0.00 0.00 0.00 89 1016.7
20260509155527 12 0 0.0 1.6 0.00 0.00 0.00 89 1016.7
20260509155031 12 0 0.0 0.0 0.00 0.00 0.00 89 1016.8
20260509154542 12 0 0.0 0.0 0.00 0.00 0.00 90 1016.8
20260509154031 12 0 0.0 1.6 0.00 0.00 0.00 90 1016.7
20260509153528 11 0 0.0 1.6 0.00 0.00 0.00 91 1016.8
20260509153041 11 0 0.0 1.6 0.00 0.00 0.00 92 1016.8
20260509152529 11 0 0.0 1.6 0.00 0.00 0.00 92 1016.8
20260509152028 11 0 0.0 1.6 0.00 0.00 0.00 93 1016.7
20260509151544 11 0 0.0 1.6 0.00 0.00 0.00 93 1016.7
20260509151027 11 0 0.0 1.6 0.00 0.00 0.00 94 1016.7
20260509150531 11 0 0.0 1.6 0.00 0.00 0.00 94 1016.8
20260509150042 11 0 0.0 0.0 0.00 0.00 0.00 94 1016.8
20260509145527 11 0 0.0 0.0 0.00 0.00 0.00 94 1016.8
20260509145027 11 0 0.0 0.0 0.00 0.00 0.00 95 1016.8
20260509144536 10 0 0.0 0.0 0.00 0.00 0.00 94 1016.7
20260509144027 10 0 0.0 0.0 0.00 0.00 0.00 94 1016.8
20260509143528 10 0 0.0 0.0 0.00 0.00 0.00 95 1016.7
20260509143051 10 0 0.0 0.0 0.00 0.00 0.00 95 1016.7
20260509142527 10 0 0.0 0.0 0.00 0.00 0.00 95 1016.7
20260509142028 10 0 0.0 0.0 0.00 0.00 0.00 95 1016.7
20260509141545 10 0 0.0 0.0 0.00 0.00 0.00 94 1016.7
20260509141027 10 0 0.0 0.0 0.00 0.00 0.00 94 1016.8
20260509140527 10 0 0.0 0.0 0.00 0.00 0.00 95 1016.7
20260509140047 10 0 0.0 0.0 0.00 0.00 0.00 95 1016.7
20260509135530 10 0 0.0 0.0 0.00 0.00 0.00 95 1016.7
20260509135029 10 0 0.0 0.0 0.00 0.00 0.00 95 1016.6
20260509134548 10 0 0.0 0.0 0.00 0.00 0.00 95 1016.6
20260509134028 10 0 0.0 0.0 0.00 0.00 0.00 94 1016.6
20260509133528 10 0 0.0 1.6 0.00 0.00 0.00 94 1016.6
20260509133054 10 0 0.0 1.6 0.00 0.00 0.00 94 1016.6
20260509132528 10 0 0.0 0.0 0.00 0.00 0.00 94 1016.6
20260509132028 10 0 0.0 0.0 0.00 0.00 0.00 94 1016.6
20260509131544 10 0 0.0 0.0 0.00 0.00 0.00 94 1016.5
20260509131029 10 0 0.0 0.0 0.00 0.00 0.00 94 1016.3
20260509130529 10 0 0.0 0.0 0.00 0.00 0.00 94 1016.2
20260509130044 10 0 0.0 0.0 0.00 0.00 0.00 94 1016.2
20260509125528 10 0 0.0 0.0 0.00 0.00 0.00 94 1016.2
20260509125028 10 0 0.0 0.0 0.00 0.00 0.00 94 1016.2
20260509124539 10 0 0.0 0.0 0.00 0.00 0.00 94 1016.2
20260509124027 10 0 0.0 0.0 0.00 0.00 0.00 94 1016.1
20260509123527 10 0 0.0 0.0 0.00 0.00 0.00 94 1016.2
20260509123046 10 0 0.0 0.0 0.00 0.00 0.00 94 1016.2
20260509122528 10 0 0.0 0.0 0.00 0.00 0.00 94 1016.1
20260509122028 10 0 0.0 0.0 0.00 0.00 0.00 94 1016.2
20260509121540 10 0 0.0 0.0 0.00 0.00 0.00 94 1016.2
20260509121030 10 0 0.0 0.0 0.00 0.00 0.00 94 1016.3
20260509120528 10 0 0.0 1.6 0.00 0.00 0.00 94 1016.2
20260509120044 10 0 0.0 1.6 0.00 0.00 0.00 94 1016.4
20260509115527 10 0 0.0 1.6 0.00 0.00 0.00 94 1016.2
20260509115027 10 0 0.0 3.2 0.00 0.00 0.00 94 1016.3
20260509114553 10 0 0.0 3.2 0.00 0.00 0.00 94 1016.4
20260509114032 10 0 0.0 3.2 0.00 0.00 0.00 94 1016.3
20260509113528 10 0 0.0 0.0 0.00 0.00 0.00 94 1016.2
20260509113045 10 0 0.0 0.0 0.00 0.00 0.00 94 1016.3
20260509112527 10 0 0.0 3.2 0.00 0.00 0.00 94 1016.3
20260509112027 10 0 0.0 3.2 0.00 0.00 0.00 94 1016.3
20260509111543 10 0 0.0 1.6 0.00 0.00 0.00 94 1016.4
20260509111027 10 0 0.0 1.6 0.00 0.00 0.00 94 1016.4
20260509110527 10 0 0.0 0.0 0.00 0.00 0.00 94 1016.4
20260509110053 9 0 0.0 0.0 0.00 0.00 0.00 93 1016.5
20260509105531 9 0 0.0 3.2 0.00 0.00 0.00 93 1016.4
20260509105027 9 0 0.0 3.2 0.00 0.00 0.00 93 1016.5
20260509104543 9 179 0.0 3.2 0.00 0.00 0.00 93 1016.5
20260509104027 9 0 0.0 0.0 0.00 0.00 0.00 92 1016.5
20260509103528 9 0 0.0 0.0 0.00 0.00 0.00 92 1016.6
20260509103043 9 0 0.0 0.0 0.00 0.00 0.00 92 1016.4
20260509102527 9 0 0.0 0.0 0.00 0.00 0.00 93 1016.5
20260509102028 9 0 0.0 0.0 0.00 0.00 0.00 92 1016.6
20260509101541 9 0 0.0 0.0 0.00 0.00 0.00 92 1016.4
20260509101027 9 0 0.0 0.0 0.00 0.00 0.00 91 1016.5
20260509100527 9 0 0.0 0.0 0.00 0.00 0.00 91 1016.5
20260509100100 10 0 0.0 0.0 0.00 0.00 0.00 90 1016.5
20260509095527 10 0 0.0 0.0 0.00 0.00 0.00 90 1016.3
20260509095027 10 0 0.0 0.0 0.00 0.00 0.00 90 1016.2
20260509094539 10 0 0.0 0.0 0.00 0.00 0.00 91 1016.2
20260509094027 10 0 0.0 0.0 0.00 0.00 0.00 91 1016.2
20260509093528 10 0 0.0 0.0 0.00 0.00 0.00 91 1016.3
20260509093045 10 0 0.0 0.0 0.00 0.00 0.00 90 1016.2
20260509092527 10 0 0.0 0.0 0.00 0.00 0.00 89 1016.2
20260509092028 10 0 0.0 0.0 0.00 0.00 0.00 89 1016.2
20260509091540 10 0 0.0 0.0 0.00 0.00 0.00 88 1016.2
20260509091028 10 0 0.0 0.0 0.00 0.00 0.00 87 1016.1
20260509090527 11 0 0.0 0.0 0.00 0.00 0.00 87 1016.2
20260509090045 11 0 0.0 0.0 0.00 0.00 0.00 87 1016.2
20260509085528 11 0 0.0 0.0 0.00 0.00 0.00 87 1016.1
20260509085028 11 0 0.0 0.0 0.00 0.00 0.00 87 1016.2
20260509084547 11 0 0.0 0.0 0.00 0.00 0.00 86 1016.1
20260509084028 11 0 0.0 0.0 0.00 0.00 0.00 85 1016.1
20260509083531 11 0 0.0 0.0 0.00 0.00 0.00 84 1016.2
20260509083043 12 0 0.0 0.0 0.00 0.00 0.00 84 1016.2
20260509082528 12 0 0.0 0.0 0.00 0.00 0.00 84 1016.3
20260509082028 12 0 0.0 0.0 0.00 0.00 0.00 84 1016.4
20260509081543 12 0 0.0 0.0 0.00 0.00 0.00 84 1016.3
20260509081028 12 0 0.0 0.0 0.00 0.00 0.00 83 1016.3
20260509080528 12 0 0.0 0.0 0.00 0.00 0.00 82 1016.3
20260509080120 12 0 0.0 0.0 0.00 0.00 0.00 81 1016.2
20260509075529 12 0 0.0 0.0 0.00 0.00 0.00 81 1016.3
20260509075030 12 0 0.0 0.0 0.00 0.00 0.00 80 1016.3
20260509074547 13 0 0.0 0.0 0.00 0.00 0.00 80 1016.4
20260509074028 13 0 0.0 0.0 0.00 0.00 0.00 79 1016.2
20260509073528 13 0 0.0 0.0 0.00 0.00 0.00 79 1016.2
20260509073128 13 0 0.0 0.0 0.00 0.00 0.00 80 1016.2
20260509072527 13 0 0.0 0.0 0.00 0.00 0.00 79 1016.3
20260509072027 13 0 0.0 0.0 0.00 0.00 0.00 78 1016.3
20260509071549 13 0 0.0 0.0 0.00 0.00 0.00 78 1016.1
20260509071028 13 0 0.0 0.0 0.00 0.00 0.00 78 1016.2
20260509070527 13 0 0.0 0.0 0.00 0.00 0.00 78 1016.2
20260509070044 13 0 0.0 0.0 0.00 0.00 0.00 77 1016.2
20260509065532 13 0 0.0 0.0 0.00 0.00 0.00 78 1016.2
20260509065027 13 0 0.0 0.0 0.00 0.00 0.00 77 1016.3
20260509064546 13 0 0.0 0.0 0.00 0.00 0.00 75 1016.2
20260509064028 14 0 0.0 0.0 0.00 0.00 0.00 75 1016.2
20260509063531 14 0 0.0 0.0 0.00 0.00 0.00 74 1016.0
20260509063043 14 0 0.0 0.0 0.00 0.00 0.00 74 1016.1
20260509062527 15 0 0.0 0.0 0.00 0.00 0.00 74 1016.0
20260509062031 15 0 0.0 0.0 0.00 0.00 0.00 73 1016.0
20260509061549 15 0 0.0 0.0 0.00 0.00 0.00 72 1016.0
20260509061027 15 0 0.0 0.0 0.00 0.00 0.00 72 1015.9
20260509060527 15 0 0.0 0.0 0.00 0.00 0.00 71 1015.9
20260509060036 15 0 0.0 0.0 0.00 0.00 0.00 71 1015.9
20260509055527 15 0 0.0 0.0 0.00 0.00 0.00 70 1015.9
20260509055031 15 0 0.0 0.0 0.00 0.00 0.00 69 1015.9
20260509054545 15 0 0.0 0.0 0.00 0.00 0.00 69 1015.9
20260509054028 15 0 0.0 0.0 0.00 0.00 0.00 68 1015.9
20260509053528 15 0 0.0 0.0 0.00 0.00 0.00 68 1015.8
20260509053048 15 0 0.0 0.0 0.00 0.00 0.00 67 1015.8
20260509052528 16 0 0.0 0.0 0.00 0.00 0.00 67 1015.7
20260509052029 16 0 0.0 0.0 0.00 0.00 0.00 64 1015.6
20260509051555 16 0 0.0 0.0 0.00 0.00 0.00 63 1015.7
20260509051027 16 0 0.0 0.0 0.00 0.00 0.00 63 1015.7
20260509050530 16 0 0.0 0.0 0.00 0.00 0.00 62 1015.7
20260509050043 16 0 0.0 0.0 0.00 0.00 0.00 65 1015.6
20260509045530 16 0 0.0 0.0 0.00 0.00 0.00 63 1015.6
20260509045030 16 0 0.0 0.0 0.00 0.00 0.00 64 1015.6
20260509044537 16 0 0.0 0.0 0.00 0.00 0.00 65 1015.6
20260509044029 16 0 0.0 0.0 0.00 0.00 0.00 65 1015.5
20260509043531 17 0 0.0 0.0 0.00 0.00 0.00 67 1015.5
20260509043052 17 0 0.0 0.0 0.00 0.00 0.00 67 1015.4
20260509042529 17 0 0.0 0.0 0.00 0.00 0.00 66 1015.3
20260509042028 17 0 0.0 0.0 0.00 0.00 0.00 69 1015.5
20260509041542 17 0 0.0 0.0 0.00 0.00 0.00 68 1015.4
20260509041029 17 0 0.0 0.0 0.00 0.00 0.00 64 1015.2
20260509040527 17 0 0.0 0.0 0.00 0.00 0.00 64 1015.1
20260509040100 17 0 0.0 0.0 0.00 0.00 0.00 65 1015.1
20260509035529 17 0 0.0 0.0 0.00 0.00 0.00 65 1015.1
20260509035028 18 0 0.0 0.0 0.00 0.00 0.00 65 1015.1
20260509034540 18 0 0.0 0.0 0.00 0.00 0.00 65 1015.0
20260509034027 18 0 0.0 0.0 0.00 0.00 0.00 63 1015.0
20260509033528 19 0 0.0 0.0 0.00 0.00 0.00 61 1014.8
20260509033036 19 0 0.0 0.0 0.00 0.00 0.00 62 1014.7
20260509032525 20 0 0.0 0.0 0.00 0.00 0.00 61 1014.6
20260509032027 20 0 0.0 0.0 0.00 0.00 0.00 60 1014.6
20260509031547 20 0 0.0 0.0 0.00 0.00 0.00 58 1014.5
20260509031028 21 0 0.0 0.0 0.00 0.00 0.00 56 1014.4
20260509030531 21 0 0.0 0.0 0.00 0.00 0.00 56 1014.3
20260509030044 22 0 0.0 0.0 0.00 0.00 0.00 53 1014.3
20260509025528 22 0 0.0 0.0 0.00 0.00 0.00 51 1014.3
20260509025027 22 0 0.0 0.0 0.00 0.00 0.00 50 1014.2
20260509024538 22 0 0.0 0.0 0.00 0.00 0.00 48 1014.2
20260509024027 23 0 0.0 0.0 0.00 0.00 0.00 46 1014.1
20260509023528 23 0 0.0 0.0 0.00 0.00 0.00 46 1014.1
20260509023038 23 0 0.0 0.0 0.00 0.00 0.00 45 1014.0
20260509022527 24 0 0.0 0.0 0.00 0.00 0.00 44 1014.0
20260509022027 25 0 0.0 0.0 0.00 0.00 0.00 43 1013.9
20260509021536 25 0 0.0 0.0 0.00 0.00 0.00 42 1013.9
20260509021027 25 0 0.0 0.0 0.00 0.00 0.00 41 1013.9
20260509020526 25 0 0.0 0.0 0.00 0.00 0.00 40 1013.9
20260509020044 26 0 0.0 0.0 0.00 0.00 0.00 41 1013.8
20260509015531 26 0 0.0 0.0 0.00 0.00 0.00 40 1013.9
20260509015028 26 0 0.0 0.0 0.00 0.00 0.00 39 1013.9
20260509014544 26 0 0.0 1.6 0.00 0.00 0.00 39 1013.8
20260509014028 27 0 0.0 1.6 0.00 0.00 0.00 38 1013.8
20260509013531 27 0 0.0 1.6 0.00 0.00 0.00 37 1013.8
20260509013054 28 0 0.0 1.6 0.00 0.00 0.00 35 1013.7
20260509012527 28 0 0.0 1.6 0.00 0.00 0.00 34 1013.7
20260509012027 29 0 0.0 1.6 0.00 0.00 0.00 33 1013.8
20260509011537 30 228 0.0 1.6 0.00 0.00 0.00 31 1013.8
20260509011028 30 190 0.0 1.6 0.00 0.00 0.00 31 1013.8
20260509010528 30 160 0.0 3.2 0.00 0.00 0.00 31 1013.8
20260509010037 30 277 0.0 4.8 0.00 0.00 0.00 31 1013.8
20260509005527 29 248 0.0 8.0 0.00 0.00 0.00 32 1013.8
20260509005028 29 311 3.2 8.0 0.00 0.00 0.00 31 1013.9
20260509004604 30 273 0.0 3.2 0.00 0.00 0.00 30 1013.8
20260509004028 30 167 0.0 6.4 0.00 0.00 0.00 33 1013.9
20260509003528 30 60 3.2 6.4 0.00 0.00 0.00 32 1013.9
20260509003046 30 117 1.6 8.0 0.00 0.00 0.00 34 1014.0
20260509002529 30 139 3.2 8.0 0.00 0.00 0.00 31 1014.1
20260509002027 30 139 3.2 8.0 0.00 0.00 0.00 32 1014.2
20260509001539 30 133 1.6 8.0 0.00 0.00 0.00 32 1014.2
20260509001027 30 173 1.6 8.0 0.00 0.00 0.00 33 1014.2
20260509000527 30 266 1.6 11.3 0.00 0.00 0.00 34 1014.3
20260509000042 30 164 1.6 11.3 0.00 0.00 0.00 34 1014.2
20260508235530 30 167 1.6 9.7 0.00 0.00 0.00 37 1014.2
20260508235028 29 221 1.6 11.3 0.00 0.00 0.00 38 1014.2
20260508234546 29 122 3.2 12.9 0.00 0.00 0.00 38 1014.2
20260508234028 29 317 3.2 12.9 0.00 0.00 0.00 38 1014.2
20260508233528 29 203 3.2 12.9 0.00 0.00 0.00 39 1014.2
20260508233043 30 120 4.8 9.7 0.00 0.00 0.00 37 1014.2
20260508232527 30 215 1.6 9.7 0.00 0.00 0.00 37 1014.4
20260508232030 30 323 3.2 6.4 0.00 0.00 0.00 36 1014.5
20260508231543 30 47 1.6 8.0 0.00 0.00 0.00 37 1014.5
20260508231029 30 106 1.6 9.7 0.00 0.00 0.00 35 1014.5
20260508230528 30 236 3.2 9.7 0.00 0.00 0.00 35 1014.5
20260508230055 30 260 1.6 6.4 0.00 0.00 0.00 35 1014.5
20260508225527 30 351 1.6 9.7 0.00 0.00 0.00 37 1014.5
20260508225028 30 96 3.2 9.7 0.00 0.00 0.00 37 1014.6
20260508224543 30 229 3.2 11.3 0.00 0.00 0.00 37 1014.5
20260508224028 30 218 3.2 12.9 0.00 0.00 0.00 37 1014.5
20260508223527 30 124 4.8 12.9 0.00 0.00 0.00 38 1014.6
20260508223036 30 177 4.8 11.3 0.00 0.00 0.00 38 1014.5
20260508222527 31 97 3.2 16.1 0.00 0.00 0.00 39 1014.6
20260508222031 31 259 6.4 16.1 0.00 0.00 0.00 39 1014.7
20260508221543 31 214 4.8 16.1 0.00 0.00 0.00 39 1014.7
20260508221028 31 165 3.2 11.3 0.00 0.00 0.00 38 1014.8
20260508220530 31 19 3.2 12.9 0.00 0.00 0.00 39 1014.9
20260508220052 32 183 3.2 12.9 0.00 0.00 0.00 38 1015.0
20260508215530 32 270 1.6 12.9 0.00 0.00 0.00 39 1015.0
20260508215028 32 159 4.8 9.7 0.00 0.00 0.00 37 1015.1
20260508214548 32 180 3.2 9.7 0.00 0.00 0.00 36 1015.2
20260508214030 32 132 1.6 4.8 0.00 0.00 0.00 29 1015.3
20260508213528 32 170 1.6 6.4 0.00 0.00 0.00 29 1015.3
20260508213039 31 170 1.6 8.0 0.00 0.00 0.00 30 1015.3
20260508212528 31 330 3.2 8.0 0.00 0.00 0.00 30 1015.4
20260508212024 32 169 0.0 8.0 0.00 0.00 0.00 32 1015.5
20260508211543 32 328 1.6 6.4 0.00 0.00 0.00 32 1015.5
20260508211028 32 221 0.0 3.2 0.00 0.00 0.00 32 1015.5
20260508210525 32 212 0.0 3.2 0.00 0.00 0.00 34 1015.6
20260508210053 31 187 1.6 3.2 0.00 0.00 0.00 37 1015.6
20260508205527 31 262 1.6 6.4 0.00 0.00 0.00 38 1015.7
20260508205031 30 72 1.6 6.4 0.00 0.00 0.00 37 1015.8
20260508204544 30 314 1.6 6.4 0.00 0.00 0.00 37 1015.9
20260508204027 31 316 1.6 6.4 0.00 0.00 0.00 36 1016.0
20260508203527 31 111 1.6 6.4 0.00 0.00 0.00 36 1016.1
20260508203046 30 187 1.6 6.4 0.00 0.00 0.00 37 1016.1
20260508202525 30 205 1.6 6.4 0.00 0.00 0.00 38 1016.1
20260508202027 30 333 1.6 8.0 0.00 0.00 0.00 39 1016.1
20260508201537 29 191 0.0 8.0 0.00 0.00 0.00 40 1016.2
20260508201029 29 246 1.6 8.0 0.00 0.00 0.00 38 1016.4
20260508200531 29 267 1.6 4.8 0.00 0.00 0.00 41 1016.5
20260508200044 28 300 1.6 4.8 0.00 0.00 0.00 40 1016.6
20260508195527 28 307 1.6 8.0 0.00 0.00 0.00 41 1016.7
20260508195030 28 0 1.6 8.0 0.00 0.00 0.00 40 1016.7
20260508194547 28 323 1.6 6.4 0.00 0.00 0.00 41 1016.7
20260508194027 28 351 1.6 8.0 0.00 0.00 0.00 42 1016.7
20260508193527 27 25 1.6 8.0 0.00 0.00 0.00 43 1016.8
20260508193050 28 326 1.6 3.2 0.00 0.00 0.00 41 1017.0
20260508192527 27 0 0.0 3.2 0.00 0.00 0.00 41 1017.0
20260508192028 27 0 0.0 3.2 0.00 0.00 0.00 42 1017.2
20260508191543 27 301 0.0 4.8 0.00 0.00 0.00 45 1017.2
20260508191028 27 0 1.6 4.8 0.00 0.00 0.00 43 1017.2
20260508190529 26 293 0.0 4.8 0.00 0.00 0.00 44 1017.3
20260508190048 26 221 1.6 4.8 0.00 0.00 0.00 45 1017.4
20260508185525 26 207 0.0 4.8 0.00 0.00 0.00 45 1017.4
20260508185028 25 308 0.0 3.2 0.00 0.00 0.00 47 1017.6
20260508184557 25 292 0.0 3.2 0.00 0.00 0.00 47 1017.7
20260508184027 25 319 0.0 4.8 0.00 0.00 0.00 50 1017.8